Temp
16 17 17 17 17 17 17 17 17 17 17 17 17 17 17 17 17 17 17 17 17 17 17 17 18 17 17 18 18 18 18 18 18 19 18 17 17 17 17 18 18 18 18 18 18 19 20 20 21 21 21 22 22 22 22 22 22 22 20 19 20 21 20 19 19 20 20 18 16 15 16 16 14 13 13 13 14 13 11 12 11 11 11 10 9 8 7 6
17 17 17 17 17 18 18 18 17 17 17 17 17 17 17 17 17 17 17 17 17 17 17 17 18 18 18 18 18 18 19 19 19 19 17 17 17 17 17 17 18 18 18 18 19 19 21 21 22 22 22 22 22 22 22 22 22 21 20 20 20 20 18 17 18 19 19 19 17 16 17 18 16 14 14 14 14 13 12 12 11 11 10 9 8 7 7 6
17 17 17 17 17 18 18 18 18 17 17 17 17 17 17 17 17 17 17 17 17 17 18 18 18 18 18 18 18 18 18 18 19 18 17 17 18 17 18 18 18 18 18 18 19 20 21 21 22 22 22 22 23 22 22 22 21 21 21 20 20 19 18 17 17 17 18 19 18 17 17 18 16 15 14 15 15 13 13 12 11 11 10 9 8 7 7 6
17 17 17 17 17 17 17 18 18 18 18 17 17 17 17 17 17 17 17 17 17 18 18 18 18 18 18 18 18 18 18 18 19 18 18 18 18 18 18 18 18 18 18 18 18 19 20 21 22 22 22 21 23 23 22 21 21 22 21 19 19 19 18 16 16 16 17 19 19 18 17 17 16 15 15 15 15 14 14 14 13 12 11 9 8 8 7 7
18 18 18 18 17 17 17 17 17 18 18 17 17 18 18 18 18 18 18 18 17 18 18 18 18 18 18 18 18 18 17 18 18 18 18 18 18 18 18 18 18 18 18 18 18 20 20 21 22 22 22 21 22 22 22 22 21 21 19 18 17 18 18 15 15 15 15 18 18 17 17 16 15 15 15 16 17 14 14 15 15 14 12 10 9 8 8 8
18 18 18 18 18 18 17 17 17 17 18 18 18 18 18 18 17 18 18 18 18 18 18 18 18 18 18 18 18 17 17 18 18 18 17 18 18 18 18 18 18 18 18 18 19 20 21 22 22 21 21 21 22 22 22 22 21 20 18 17 16 17 16 15 14 14 15 17 18 16 16 16 15 15 15 16 16 13 11 13 15 15 12 10 9 8 8 8
18 18 18 18 18 18 18 18 17 17 17 17 18 18 18 18 17 17 17 17 18 18 18 18 18 18 18 18 18 17 18 18 18 17 17 18 18 18 18 18 18 18 18 18 20 21 21 21 21 21 21 21 22 22 21 21 21 20 19 17 15 15 15 14 14 14 15 16 16 15 15 15 15 15 15 15 14 11 10 11 12 14 12 10 10 9 8 8
18 18 18 18 18 18 18 18 18 17 17 18 18 18 18 18 18 17 17 17 17 18 18 18 18 18 18 18 18 18 19 18 17 17 17 18 18 18 18 18 18 18 18 19 20 21 21 21 21 21 21 21 22 21 19 20 21 19 18 16 15 15 14 14 14 14 14 14 14 14 15 15 15 14 13 14 13 10 10 10 10 12 12 10 10 9 9 9
19 18 18 18 18 18 18 18 18 18 18 18 18 18 18 18 18 18 17 17 18 18 18 18 18 18 18 17 18 19 18 17 17 17 17 17 17 17 18 18 18 18 19 20 21 21 21 21 22 22 22 21 21 19 18 19 19 17 17 16 15 15 14 14 14 14 14 14 14 14 15 14 13 13 13 14 13 10 10 10 10 10 10 10 10 9 9 9
19 19 18 18 18 18 18 18 18 18 18 18 18 18 18 18 18 18 18 18 18 18 18 18 18 18 17 18 19 19 17 17 17 17 17 17 17 17 17 18 18 19 20 21 21 21 21 21 22 22 21 21 20 18 17 18 17 16 16 16 15 14 14 14 14 14 14 14 14 14 15 14 13 12 14 15 12 10 10 9 9 9 9 10 10 10 9 9
19 19 18 18 18 18 18 18 18 19 19 19 18 18 18 18 18 18 18 18 18 18 18 18 18 18 18 19 20 19 17 17 17 17 17 17 17 18 18 18 18 19 20 21 21 20 20 20 22 22 20 20 19 17 17 17 17 16 16 15 15 14 14 14 14 14 14 14 14 14 15 15 13 12 14 13 10 10 10 9 9 9 9 9 10 10 9 9
19 18 18 18 18 17 17 18 19 19 19 19 18 18 18 18 18 18 18 18 18 19 18 18 18 18 18 19 19 17 17 17 17 17 17 17 18 18 18 18 18 19 20 21 20 19 19 20 21 21 19 20 18 16 16 16 17 16 16 16 15 15 14 14 15 14 15 14 14 14 14 14 13 13 15 12 10 10 10 10 9 9 9 9 9 9 9 9
18 18 18 18 18 18 18 18 19 19 19 19 19 18 18 18 18 18 18 19 19 19 18 18 19 18 18 19 18 17 17 17 17 17 17 18 18 19 19 19 19 19 19 20 19 19 19 20 20 20 19 19 17 16 16 16 17 16 17 17 16 16 15 15 15 14 15 14 14 14 14 16 16 14 14 11 10 10 10 10 9 9 9 9 9 9 9 9
18 18 18 18 18 18 18 18 19 19 19 19 18 18 18 18 18 18 19 19 19 19 19 19 19 18 18 18 18 18 18 17 18 17 17 18 18 19 19 19 19 19 19 19 19 19 20 20 20 19 18 17 16 15 16 16 16 17 17 17 16 17 16 15 15 14 14 14 14 14 13 15 17 14 12 10 10 10 10 10 10 9 9 9 9 9 9 9
19 18 18 18 18 18 18 18 18 19 19 19 18 18 18 18 18 18 19 19 19 19 19 19 19 19 19 18 18 18 18 18 18 17 17 17 17 19 19 19 19 19 19 19 19 19 20 20 20 18 16 16 16 16 16 16 16 17 17 16 17 17 15 15 15 15 15 14 14 14 13 15 16 13 11 11 11 10 11 11 10 10 9 10 9 9 9 9
19 18 18 18 18 18 18 18 18 19 19 18 18 18 18 18 18 18 18 18 19 19 19 19 20 20 20 18 18 19 18 18 18 17 17 17 17 18 18 19 19 19 19 19 19 19 20 19 18 18 17 16 17 17 17 17 17 17 17 16 17 17 16 15 15 15 15 14 14 14 13 15 16 13 12 11 11 11 11 11 11 10 10 10 10 9 9 9
19 18 18 18 18 18 18 18 18 19 19 18 18 18 18 18 18 19 19 19 19 19 19 19 21 21 19 18 19 18 18 18 17 17 17 17 17 17 18 19 20 20 20 19 20 20 20 18 17 17 18 17 18 18 18 17 17 17 17 17 18 18 18 16 14 15 15 14 14 14 13 14 15 14 12 11 11 11 10 11 12 11 11 10 10 10 9 9
18 18 18 18 18 18 18 18 18 18 18 18 18 18 19 19 19 19 19 19 19 19 19 19 20 19 18 18 18 18 18 18 17 17 18 17 17 17 18 19 20 20 20 20 20 20 20 18 17 17 18 18 18 18 17 16 15 16 16 16 17 17 18 17 14 14 14 13 13 14 13 14 15 16 14 12 11 11 11 12 12 12 11 11 10 10 9 9
18 18 18 18 18 18 18 18 18 18 18 18 18 18 19 19 19 19 19 19 18 18 18 18 18 18 17 18 18 18 18 18 17 18 18 17 17 17 18 19 19 19 19 19 19 19 19 18 17 17 17 16 16 16 15 15 15 15 16 16 16 16 17 16 14 13 13 13 13 13 13 14 15 16 16 14 11 11 11 12 12 13 12 11 11 10 10 10
18 18 18 18 18 18 18 18 18 18 18 18 18 18 18 19 19 18 17 17 17 17 17 17 17 18 17 17 17 17 17 18 18 18 17 17 17 17 19 19 19 19 19 18 18 18 17 18 16 15 15 14 15 15 15 15 15 16 16 16 16 16 17 16 13 12 12 12 13 14 14 15 15 16 17 15 12 11 12 12 12 13 13 12 11 11 10 10
18 18 18 18 18 18 18 18 18 18 18 18 18 18 19 19 19 18 16 16 16 17 17 17 17 18 17 17 17 16 16 18 18 18 17 17 18 18 19 19 19 19 18 17 17 17 17 17 15 13 14 14 14 14 15 15 15 16 15 15 16 16 16 15 13 12 12 12 13 14 14 14 15 16 17 17 14 12 12 12 12 13 13 13 12 12 11 11
18 18 18 18 18 18 18 18 18 18 18 19 18 19 19 18 18 18 17 17 16 17 18 17 18 18 17 17 17 16 16 17 18 18 16 17 18 18 17 19 19 18 18 17 17 17 17 15 13 13 14 14 14 14 14 15 15 15 15 15 16 16 16 14 13 12 13 12 13 14 14 13 15 15 16 17 16 14 13 13 13 13 13 13 13 12 12 12
18 18 18 18 18 18 18 18 18 18 18 19 19 19 19 18 18 18 18 18 16 16 17 17 18 18 17 17 17 16 17 16 17 17 15 16 18 17 16 18 18 18 18 17 17 17 16 14 13 13 13 14 15 15 15 15 15 15 15 15 15 15 15 14 13 13 13 13 13 13 12 12 13 14 15 16 17 17 16 14 14 14 14 13 13 13 13 12
18 18 18 18 18 18 18 18 18 18 18 18 18 18 18 19 19 18 18 19 17 16 17 16 17 17 16 16 16 16 17 16 16 16 15 15 16 16 16 16 17 18 17 16 16 16 14 13 12 13 13 14 15 15 15 14 14 15 15 15 15 14 14 14 14 14 14 14 13 12 11 12 14 15 16 17 17 17 17 16 14 14 14 14 14 14 13 13
18 18 18 18 18 18 18 17 18 18 19 19 18 18 18 18 19 18 18 19 18 16 16 16 17 17 16 16 16 16 16 16 15 15 14 14 14 15 16 15 16 16 16 15 16 15 13 12 12 12 13 14 14 14 14 13 14 15 14 12 13 13 13 13 13 13 13 13 13 12 12 14 17 17 18 19 18 17 18 17 15 15 14 14 14 14 14 13
18 18 18 18 18 17 17 17 18 19 19 18 18 18 18 18 18 18 18 19 18 16 16 16 17 16 16 16 16 15 15 15 15 15 15 14 13 13 15 16 15 15 14 14 14 14 13 12 12 12 13 14 14 13 13 12 13 14 13 11 11 12 12 12 13 12 12 14 13 13 13 13 15 16 17 18 17 17 17 17 16 16 15 14 14 13 14 14
18 18 18 18 18 17 17 18 18 19 18 18 19 19 18 18 18 18 18 18 18 16 16 17 16 16 16 16 16 16 15 15 15 15 15 14 13 13 14 16 15 14 14 14 14 13 13 12 12 12 13 13 13 13 12 12 13 13 11 10 11 11 11 12 12 12 12 14 14 13 13 12 12 15 17 18 17 17 17 16 16 15 15 15 14 13 13 13
18 18 18 18 17 17 17 18 18 18 18 18 19 19 18 18 18 18 18 18 18 16 16 17 16 16 16 17 17 16 15 15 15 15 15 14 14 14 15 15 15 14 13 14 14 13 12 12 12 12 12 13 13 12 11 12 13 12 10 10 11 11 11 12 12 12 12 13 13 13 14 12 13 15 18 17 16 17 17 17 16 16 15 15 14 14 13 13
17 17 17 17 17 17 17 17 17 18 18 19 19 19 19 18 18 18 18 17 17 16 16 16 15 16 16 16 16 16 15 15 14 15 16 15 14 14 14 14 14 14 13 13 14 12 11 11 11 11 12 12 12 11 10 11 12 11 9 10 10 10 10 11 11 11 13 12 12 13 13 12 13 16 17 16 16 17 17 17 18 17 17 15 15 14 14 13
17 16 16 16 16 16 17 17 17 17 18 19 19 18 18 18 18 18 18 17 17 16 16 16 15 15 16 16 16 15 15 15 14 15 15 15 15 14 13 13 13 14 13 13 12 11 10 9 9 10 12 12 11 10 9 10 10 10 10 11 11 11 10 11 11 12 12 12 12 14 14 13 13 15 17 17 16 17 17 18 17 18 18 17 16 15 15 14
16 15 15 16 15 16 17 17 17 18 18 18 19 18 18 18 18 18 17 17 17 16 15 15 15 15 15 15 15 15 15 15 14 14 15 14 15 15 14 13 13 14 14 14 12 11 10 10 10 10 10 11 11 10 9 9 9 10 10 11 12 12 12 11 12 12 11 12 13 13 13 13 13 14 17 18 17 17 17 17 17 17 17 18 17 16 16 15
15 15 15 15 15 16 17 17 17 17 17 18 18 18 18 17 18 18 18 17 17 17 15 14 14 14 14 14 14 14 14 14 14 14 14 14 15 14 14 13 14 14 15 15 13 12 11 10 11 10 9 10 11 11 10 9 9 10 11 12 12 13 13 13 13 13 13 13 13 12 12 13 13 14 16 17 17 17 17 18 18 17 17 17 17 17 16 15
15 15 15 16 16 16 17 17 17 17 17 17 17 18 18 17 18 18 18 18 17 15 14 14 14 14 13 14 14 13 13 14 14 13 13 13 14 13 12 12 13 14 15 16 15 14 13 11 10 10 10 10 11 12 12 11 10 10 12 13 13 13 13 12 13 14 14 14 13 12 12 12 13 15 16 16 17 18 18 18 18 18 17 17 16 16 15 14
15 15 15 15 16 16 16 17 17 16 16 17 18 18 17 17 18 17 17 17 15 14 13 13 14 14 14 14 14 12 13 14 13 13 13 13 14 15 13 12 12 12 14 15 15 15 15 14 12 11 11 10 10 12 12 12 11 12 13 14 13 12 12 12 13 13 13 13 13 12 12 13 14 16 17 18 18 18 18 18 18 17 17 16 15 14 14 13
15 15 15 15 15 15 15 16 16 16 16 17 18 18 17 18 19 18 17 16 14 14 13 12 13 15 15 14 13 12 13 14 13 13 14 14 15 16 15 13 12 12 13 14 15 14 16 16 12 10 10 10 10 11 11 11 12 13 14 13 12 13 13 13 13 13 12 11 11 12 13 14 15 17 18 17 18 18 18 17 17 16 16 15 15 14 13 13
15 15 15 15 14 14 14 15 15 16 16 17 18 17 17 18 18 17 16 14 14 15 14 13 14 15 17 16 14 12 12 13 14 14 14 15 16 16 14 13 11 12 12 14 15 14 16 15 11 9 10 9 10 10 10 11 12 12 13 12 12 12 13 13 12 12 12 10 11 12 13 14 15 16 17 17 17 17 17 17 16 16 15 15 15 15 14 13
16 16 15 15 15 15 15 15 16 16 17 17 18 17 17 16 14 13 13 13 13 14 14 16 15 16 18 18 15 13 12 13 14 14 15 16 16 15 13 12 11 11 11 12 14 14 14 14 11 10 11 9 8 9 9 10 11 12 12 11 11 12 12 12 11 11 11 10 12 13 13 14 14 15 16 17 17 17 17 17 16 15 15 15 15 15 14 14
16 16 16 15 15 16 16 16 16 17 17 17 17 17 17 15 12 11 11 11 13 14 15 17 16 15 17 18 17 14 13 14 15 15 16 16 16 15 14 12 10 10 10 9 12 13 13 14 12 10 10 9 7 9 10 10 9 10 10 10 11 12 12 12 11 11 11 10 12 13 13 14 14 15 16 16 16 17 16 16 16 15 15 15 15 15 14 14
16 17 16 15 16 16 17 17 17 17 18 17 18 18 15 13 11 10 10 10 12 14 15 16 16 15 15 16 16 14 14 15 15 16 17 17 16 14 13 13 10 9 9 9 11 13 13 14 13 10 9 9 8 9 11 10 8 8 9 10 11 11 11 12 11 11 11 10 11 12 13 13 14 15 16 16 16 17 16 16 16 16 16 15 15 15 14 14
16 17 16 16 16 17 17 17 17 18 17 17 17 17 14 12 11 9 8 9 11 13 14 15 15 15 15 15 15 15 14 14 14 15 16 16 16 14 13 13 10 8 9 9 10 12 12 13 14 11 9 10 10 11 12 13 10 8 8 9 10 10 11 11 11 11 11 11 10 10 11 13 15 16 17 16 17 17 17 16 16 16 15 15 15 14 14 14
17 17 16 16 17 17 17 17 17 17 17 17 16 15 13 12 10 9 8 8 10 11 12 13 14 14 15 15 15 15 14 14 14 15 16 15 16 15 13 12 10 8 9 9 10 11 12 13 13 12 10 12 13 12 11 12 12 10 10 10 10 10 10 10 10 11 11 10 11 10 10 12 15 16 17 17 17 16 17 16 16 16 15 15 14 14 14 13
18 17 16 16 17 17 17 17 16 15 17 16 14 12 11 11 11 10 9 8 9 10 10 11 12 13 14 15 15 14 14 15 15 15 15 15 16 15 12 11 10 9 10 11 10 11 11 11 12 12 12 13 12 10 9 9 10 11 11 11 11 10 10 11 11 11 10 10 11 10 9 11 14 16 16 16 16 16 16 16 16 15 14 14 14 13 13 13
18 17 16 16 17 17 17 17 16 16 16 13 11 10 10 11 11 10 9 9 10 11 11 11 12 13 13 14 14 14 14 15 15 15 15 16 15 12 10 11 11 10 11 11 11 10 11 11 11 11 13 14 10 8 8 8 9 11 11 11 12 11 11 11 10 10 10 10 11 10 9 11 14 16 16 16 16 16 16 15 15 14 14 14 13 13 13 13
17 17 16 16 17 17 17 17 17 17 15 12 11 11 10 10 11 10 10 11 11 11 12 12 13 13 12 12 13 14 14 15 16 15 15 15 13 9 9 11 10 10 11 11 11 11 11 12 12 11 13 14 12 11 11 9 9 10 11 11 12 12 11 10 9 10 9 10 11 10 10 12 14 15 15 15 15 15 15 14 14 14 13 13 13 13 13 13
17 17 17 17 17 17 16 16 16 17 15 13 13 12 11 11 11 10 11 12 11 12 12 12 12 12 11 12 12 12 13 14 15 14 13 13 11 8 7 9 10 10 10 9 10 11 11 12 12 12 12 13 14 15 14 12 11 10 11 11 12 12 11 10 10 9 9 10 10 10 10 12 14 15 14 14 14 14 14 14 14 13 13 13 13 13 13 12
17 17 17 17 17 17 15 14 15 16 15 14 15 14 13 13 11 10 10 12 12 11 12 11 11 11 11 11 11 12 12 12 13 13 12 12 12 8 6 7 8 8 8 8 9 9 10 10 11 12 12 13 14 15 14 13 13 12 12 12 11 11 10 10 10 9 9 10 10 10 11 12 13 14 13 13 14 13 13 13 13 13 13 13 12 12 12 12
17 17 17 16 16 16 16 15 15 16 15 15 16 15 14 13 12 11 10 11 11 11 11 11 11 12 12 11 12 12 12 12 12 12 12 12 11 9 6 6 7 6 6 8 8 9 9 9 10 10 11 12 13 14 13 12 12 12 12 12 11 10 9 9 9 10 11 10 10 11 12 11 12 13 13 13 14 13 13 13 12 12 12 12 12 11 12 11
16 16 15 14 15 16 16 15 15 15 15 15 15 15 14 14 13 13 11 10 9 10 11 12 11 11 12 12 13 13 13 13 12 11 12 11 11 9 7 6 6 5 6 7 8 8 8 8 10 10 10 10 11 11 12 11 11 11 11 11 11 10 9 8 9 10 11 10 10 12 12 11 12 13 13 13 13 12 12 12 12 12 11 11 11 11 11 11
15 15 13 12 14 15 14 13 14 14 14 14 15 15 15 15 14 14 13 10 10 10 11 13 13 11 12 12 13 13 14 14 14 13 12 11 10 10 9 8 6 5 6 6 7 8 8 8 9 9 9 9 9 9 10 10 10 10 10 10 11 10 9 8 8 9 10 9 10 11 11 11 11 12 12 12 12 12 11 11 11 11 11 11 11 11 11 11
15 15 14 13 14 14 12 12 13 14 14 14 15 15 15 15 15 15 13 13 14 12 10 12 13 12 12 12 12 13 14 15 16 15 13 12 11 10 10 11 8 5 5 6 6 7 8 8 9 9 8 8 9 9 9 9 9 9 9 10 10 10 10 9 9 9 8 8 9 9 9 9 10 11 11 11 11 11 11 11 11 11 11 11 11 11 11 11
14 14 14 15 15 14 12 13 13 14 15 14 15 15 15 15 15 15 14 14 15 15 12 12 13 13 13 12 12 13 13 14 15 15 13 13 13 12 12 12 10 6 5 6 6 6 7 7 8 8 7 8 10 10 10 10 10 9 9 9 10 10 10 10 9 9 8 8 8 8 8 8 10 11 11 11 12 11 11 11 11 11 11 11 11 10 10 10
13 14 14 15 16 14 13 14 14 14 16 16 15 16 16 16 15 15 16 15 15 15 14 13 13 13 13 14 13 12 12 12 12 12 11 12 12 12 12 12 11 8 6 5 6 6 5 6 8 8 8 9 10 10 10 9 9 8 9 10 10 10 10 10 10 10 10 9 8 8 8 9 11 11 11 11 11 11 11 11 11 11 11 10 10 10 10 9
Height
807 807 806 806 806 806 806 806 806 806 807 807 807 807 807 807 807 808 808 808 808 808 808 808 807 807 807 808 809 809 810 810 810 810 810 810 809 808 806 805 804 804 804 804 804 803 803 803 803 802 802 801 802 800 798 798 797 802 810 816 815 808 809 812 810 806 804 811 816 818 818 818 825 827 827 829 829 832 836 837 838 839 840 842 842 841 843 846
807 806 805 805 805 805 805 805 805 805 806 806 807 807 807 807 807 807 807 807 808 808 808 808 807 807 808 808 809 810 810 809 809 809 810 809 808 807 805 804 804 803 803 803 802 802 802 801 801 801 801 800 798 797 797 797 798 804 809 812 811 810 814 814 810 808 804 808 813 815 814 814 818 823 826 827 829 833 835 836 839 840 842 843 844 845 845 847
806 805 804 804 804 804 804 804 804 805 805 805 806 806 806 806 806 806 806 807 807 807 807 807 807 807 808 809 809 810 810 809 808 809 810 809 807 806 805 804 803 803 802 802 801 801 801 799 799 799 800 800 796 797 799 799 800 802 806 811 810 810 813 814 812 811 807 806 809 812 813 813 816 820 824 824 826 831 831 832 836 837 840 842 843 845 846 848
805 804 804 803 803 803 803 803 803 803 803 804 804 804 805 805 805 805 805 806 806 806 807 807 807 807 808 809 810 810 810 810 810 809 809 808 807 805 804 803 802 802 802 802 802 801 801 799 798 797 799 801 796 796 799 800 801 799 804 811 811 808 811 816 816 814 811 807 807 812 813 815 817 818 821 821 823 828 825 823 827 829 834 838 841 844 845 847
805 804 804 804 803 803 802 802 802 802 802 802 802 803 804 804 805 805 805 805 806 806 806 807 807 808 808 809 810 810 811 814 812 809 809 807 806 805 803 802 801 801 801 802 802 801 801 799 798 797 799 801 797 797 798 797 799 801 806 811 812 810 812 817 817 817 816 809 809 814 815 816 818 819 820 818 818 823 822 819 820 822 827 834 838 841 844 845
805 805 805 804 804 803 802 802 801 801 801 801 801 802 802 803 804 804 805 805 805 806 806 807 807 808 809 810 810 811 813 816 812 808 808 806 805 804 802 802 801 801 801 801 801 800 800 798 798 799 799 800 798 798 798 796 798 805 810 812 813 812 814 819 818 819 817 811 812 815 815 816 820 820 818 817 817 821 824 821 819 820 825 831 835 839 841 843
806 805 805 804 804 803 802 802 801 801 800 800 800 801 801 802 802 803 804 805 805 806 806 807 808 808 809 810 811 811 811 811 810 808 807 805 804 803 802 802 801 801 801 801 801 799 799 798 799 799 799 802 798 796 798 797 798 803 808 813 815 816 818 820 820 820 817 815 816 817 817 818 819 819 817 817 819 824 825 824 823 822 826 831 834 837 839 840
806 805 805 804 804 803 802 801 801 801 800 799 800 800 801 801 801 803 804 804 805 805 806 807 808 808 809 810 811 810 809 810 810 809 807 805 804 803 802 802 801 801 800 800 799 798 798 798 798 798 799 801 795 797 801 799 800 804 809 814 816 817 819 820 820 820 819 818 819 819 819 819 819 821 822 818 819 823 825 826 826 826 828 831 833 836 838 839
806 805 805 804 803 802 802 801 800 800 799 799 799 800 800 801 801 802 803 804 805 806 806 807 807 808 809 809 809 810 810 811 810 809 807 806 805 804 803 802 802 801 800 800 798 798 798 797 796 795 797 798 795 801 805 804 807 809 812 814 816 818 819 820 820 820 820 819 820 820 819 820 821 824 821 814 817 822 823 826 827 828 829 830 832 834 836 838
805 805 804 804 803 802 801 801 800 799 799 799 799 799 800 801 801 802 803 804 804 805 806 807 807 807 809 808 808 811 811 810 810 809 808 807 805 804 803 802 801 801 799 798 797 797 797 796 795 792 794 796 799 806 807 808 812 811 813 815 816 819 819 819 819 820 820 820 821 820 819 818 822 825 817 810 816 821 823 826 827 828 830 830 831 833 835 836
806 805 804 804 803 803 802 801 799 798 798 798 799 799 800 801 802 802 803 804 805 805 806 806 807 807 808 807 808 811 811 810 810 809 808 807 806 804 803 802 801 801 799 797 798 798 797 797 794 793 797 797 801 809 809 811 812 811 814 816 818 818 818 818 819 819 819 820 821 820 819 818 822 824 814 811 818 820 822 825 827 828 829 829 830 831 833 834
806 806 805 805 804 803 802 801 799 798 798 798 799 800 800 801 802 803 804 804 805 805 806 807 807 808 808 807 809 811 811 810 810 809 808 807 806 805 804 803 802 801 800 798 798 798 798 797 795 797 800 799 805 812 812 811 810 812 813 815 817 817 818 817 816 818 817 819 820 820 821 817 818 815 807 812 818 819 822 824 825 827 827 828 829 830 831 832
807 806 806 805 804 804 802 801 800 799 799 799 800 801 801 802 803 804 804 805 805 806 807 807 807 808 808 809 811 811 811 810 810 809 808 807 806 806 805 804 802 801 800 799 799 799 798 797 796 798 800 802 810 813 811 810 810 813 811 811 815 816 815 814 814 817 817 819 819 821 823 811 804 806 807 813 817 818 821 821 823 825 825 826 827 828 829 830
807 807 807 806 805 804 803 802 801 801 801 801 802 802 803 803 804 805 805 806 806 806 807 807 807 807 808 811 811 811 810 810 810 809 808 807 806 805 805 804 803 802 801 800 800 799 799 798 797 799 802 805 810 812 811 812 813 813 811 812 814 815 815 813 814 817 818 820 818 820 826 811 799 806 812 814 816 818 819 819 820 822 823 823 824 825 826 826
807 807 807 807 806 805 804 803 803 803 803 803 803 804 804 804 805 805 806 806 806 807 808 807 807 806 808 811 811 811 810 810 810 809 808 807 806 805 804 804 803 802 801 801 800 800 799 798 798 802 807 807 809 812 813 814 813 811 814 816 812 813 816 815 813 814 816 819 818 820 824 811 802 809 813 813 815 816 816 816 817 818 819 820 820 821 822 823
807 807 807 807 806 806 805 805 805 805 805 805 805 805 806 806 806 806 807 807 807 808 808 808 807 806 809 812 811 810 810 810 810 809 808 808 807 805 805 804 803 802 802 801 800 800 799 800 802 804 808 810 810 810 811 813 812 810 815 816 810 808 813 815 815 813 814 818 819 820 820 810 804 808 811 812 813 814 814 812 812 814 815 816 817 817 818 819
807 807 807 807 807 807 807 807 807 806 806 806 806 807 807 807 808 808 808 808 808 809 808 808 805 805 810 811 810 810 811 811 810 809 808 807 807 806 805 803 802 802 801 801 800 800 799 802 806 806 806 808 805 806 812 817 816 813 814 814 808 805 806 811 817 815 814 818 819 818 819 813 805 804 809 810 809 811 811 808 807 808 810 811 813 813 814 815
807 807 807 807 807 808 808 808 808 808 807 807 808 808 808 809 809 809 809 808 809 808 808 808 806 811 816 813 811 812 811 811 810 809 808 807 806 805 805 804 802 802 801 801 800 799 799 802 807 807 806 807 805 809 818 822 822 819 818 817 813 809 805 806 816 818 816 820 820 818 817 810 801 799 802 805 806 807 806 803 802 802 805 807 809 809 810 810
807 807 807 808 808 808 808 809 809 808 808 809 809 809 809 809 809 809 809 809 811 812 814 813 811 816 819 814 813 813 811 811 810 809 808 807 806 805 805 803 802 802 803 804 802 800 801 804 808 811 813 814 814 817 820 821 822 820 818 818 817 815 809 808 818 821 818 820 820 817 814 806 800 795 793 798 803 803 800 799 799 799 800 802 804 804 805 806
808 808 808 808 809 809 809 809 809 809 810 810 810 810 811 810 810 812 812 812 815 817 817 816 814 815 815 814 813 812 810 810 809 809 808 806 806 805 802 802 802 801 804 807 806 804 806 809 815 821 822 822 821 820 820 818 818 817 817 817 816 814 810 809 818 821 820 821 815 810 808 802 797 792 787 791 798 799 798 797 796 796 796 796 798 799 800 800
808 808 808 808 809 809 810 810 810 810 810 811 811 811 811 810 812 815 816 817 818 817 816 816 815 814 815 815 814 813 812 810 808 808 808 805 805 805 803 801 802 804 807 808 807 806 808 815 823 826 824 823 822 820 820 818 817 817 818 819 816 814 811 811 817 821 821 821 814 807 806 799 793 788 782 784 791 794 793 793 792 791 792 792 793 794 796 796
808 808 808 809 809 809 810 811 811 811 811 811 811 810 809 809 811 811 813 818 819 817 816 816 814 814 815 815 814 814 813 812 809 808 808 806 804 806 806 802 803 806 807 806 809 810 812 821 827 825 824 823 821 820 820 820 820 819 818 818 816 813 812 814 818 819 819 821 815 808 807 800 791 786 780 780 782 782 784 785 785 786 788 789 789 790 791 793
808 807 808 808 809 810 811 811 811 811 811 811 810 810 809 809 810 810 810 815 820 818 816 816 815 815 815 815 815 813 813 815 813 811 811 809 806 808 809 806 805 806 807 809 812 814 817 825 827 825 825 823 820 820 820 820 820 819 817 817 817 816 817 819 819 817 816 817 812 810 812 804 792 785 778 774 773 771 774 777 779 781 783 784 784 785 787 788
807 807 807 808 809 810 811 812 812 811 811 811 811 810 810 810 810 811 811 813 817 819 817 817 816 816 817 816 815 814 814 816 816 815 814 813 810 809 810 811 810 809 812 815 815 817 824 828 827 827 826 823 821 820 820 823 821 817 817 818 818 819 822 821 818 816 813 810 810 814 814 800 784 780 773 766 766 767 768 772 776 778 778 779 780 781 782 783
806 806 806 807 809 810 811 812 811 811 811 811 811 810 810 811 811 811 812 814 817 819 819 818 816 817 817 817 816 816 816 816 817 817 816 815 815 812 812 813 813 814 816 816 815 820 827 829 828 827 825 822 823 823 823 827 824 818 822 826 824 822 823 822 819 819 817 811 811 815 813 793 775 773 770 762 764 766 765 768 772 774 775 776 777 777 777 778
805 805 806 807 808 810 812 813 811 811 812 811 812 812 811 812 812 811 813 818 820 820 821 818 817 818 817 817 817 816 818 819 818 817 817 817 817 816 816 813 814 818 819 819 820 823 825 828 828 827 825 824 824 825 825 828 826 823 826 830 829 826 826 825 822 823 821 812 808 812 814 801 783 776 771 763 765 766 764 766 768 769 771 772 773 774 774 775
805 805 805 806 808 810 812 812 811 811 812 812 811 812 812 812 812 811 816 826 824 820 820 817 817 819 817 817 816 818 822 821 818 818 817 817 817 817 817 815 816 819 821 821 823 825 826 827 829 828 826 826 825 825 827 828 827 826 829 833 832 829 828 825 822 825 821 812 807 806 809 810 798 780 766 762 766 767 765 766 766 766 767 768 769 771 772 772
804 805 805 806 808 809 810 810 810 810 811 811 810 812 812 812 812 811 822 835 826 818 819 817 818 819 816 817 816 818 822 820 820 820 817 817 818 817 818 818 818 820 822 823 822 826 829 827 828 829 828 827 826 827 830 829 826 828 834 835 831 830 828 824 825 825 819 815 812 803 805 812 800 775 762 763 767 767 764 763 763 763 764 765 766 767 768 769
805 805 805 807 808 809 810 810 810 810 810 811 811 812 812 812 813 814 827 836 823 817 820 818 819 819 817 818 817 818 819 819 821 819 816 817 817 817 819 819 820 821 823 824 824 828 831 831 831 830 828 828 829 832 834 832 828 832 836 834 831 832 829 828 829 825 819 819 815 803 803 810 795 770 764 770 769 766 762 758 757 757 758 761 762 762 764 765
805 805 805 807 808 809 810 810 810 810 811 811 812 813 813 813 816 824 835 832 821 820 820 818 820 821 820 820 819 819 819 820 821 818 817 817 816 817 820 821 820 822 823 823 826 831 833 835 835 832 829 828 831 835 837 835 833 835 835 831 828 826 827 828 824 821 822 819 809 800 798 804 798 773 761 764 763 759 758 756 756 754 754 755 756 758 759 760
806 806 807 807 808 810 810 810 810 810 811 811 812 813 814 815 821 832 835 824 818 822 821 821 824 823 822 824 823 821 820 821 821 820 819 818 818 818 820 822 821 822 823 822 827 832 834 834 832 831 831 830 832 834 836 838 837 835 833 829 823 818 820 823 819 821 827 816 803 801 799 803 803 779 758 756 755 754 755 755 754 753 752 752 753 754 755 756
807 807 807 808 809 809 810 810 809 810 811 811 813 813 817 825 828 827 824 819 819 823 823 826 827 824 825 826 825 824 824 824 822 823 823 821 820 820 822 824 822 822 820 817 822 828 831 832 830 832 833 832 830 829 834 838 836 835 831 827 824 816 813 816 814 815 817 807 802 806 805 802 795 775 760 756 752 751 751 750 750 750 750 751 752 753 753 755
807 808 808 809 809 809 810 810 809 811 811 812 814 813 820 832 831 823 819 818 822 825 826 829 827 826 828 826 826 828 827 825 823 824 825 823 821 823 827 827 825 824 819 814 816 818 822 827 830 831 830 830 829 824 825 829 832 833 826 819 821 820 819 820 813 806 802 798 801 808 808 801 785 766 756 753 749 747 745 745 746 746 748 749 751 752 753 755
808 809 809 809 809 810 810 810 810 811 812 813 815 818 828 834 827 824 823 820 824 828 828 829 827 827 828 825 827 829 826 824 824 824 825 824 821 819 824 828 827 826 823 819 817 815 815 816 821 825 823 826 828 823 822 824 826 824 817 816 821 822 824 822 814 808 806 803 803 807 805 794 777 758 747 745 744 742 741 742 744 745 746 748 750 752 754 754
810 810 810 810 810 810 810 811 811 812 813 814 817 823 833 828 817 816 820 822 826 827 829 831 829 826 824 825 829 831 828 824 824 825 823 822 817 813 817 824 827 826 823 820 818 817 811 806 818 828 825 826 826 823 825 824 822 819 814 818 821 817 816 816 812 808 811 815 811 803 794 779 763 749 741 742 741 740 741 741 743 745 746 748 750 751 752 753
811 811 811 811 811 811 811 811 812 813 813 816 821 826 827 822 818 819 822 825 826 826 828 829 829 824 818 820 827 830 832 828 824 824 820 816 814 813 817 823 826 827 824 821 818 818 811 807 822 830 826 829 827 824 827 824 819 818 816 817 818 816 813 814 815 808 813 824 811 794 786 774 763 750 740 739 739 739 741 740 742 745 745 747 748 747 749 751
812 812 812 812 812 812 813 812 813 815 814 816 824 825 821 822 828 829 828 829 828 827 826 823 824 822 814 814 820 827 832 829 825 823 817 814 813 813 818 824 828 828 827 826 820 820 818 813 821 826 823 829 831 829 829 827 823 820 819 819 818 817 814 815 823 818 818 822 800 783 783 778 773 760 742 739 741 739 740 740 742 744 744 745 745 745 747 747
812 812 813 813 813 813 813 813 814 814 815 820 824 822 821 825 832 834 833 833 829 827 825 821 821 822 817 814 817 825 830 824 822 821 815 811 811 812 816 823 830 830 831 833 824 821 822 815 817 826 825 828 834 830 823 825 828 823 822 824 819 817 815 816 823 821 819 818 797 778 776 775 773 762 744 741 743 740 740 741 741 742 742 743 743 743 744 745
812 813 813 814 814 814 813 814 815 814 817 823 822 819 824 830 834 837 837 836 831 826 824 821 820 822 822 818 818 823 825 821 819 818 813 810 809 812 815 818 828 832 832 834 826 821 822 816 815 824 827 827 831 828 817 818 829 830 828 825 818 817 816 813 816 815 814 814 801 785 778 771 761 750 742 741 738 737 738 739 740 740 739 740 741 742 743 743
812 813 814 814 814 814 814 814 815 816 820 823 821 821 828 832 836 840 840 838 834 829 825 822 821 822 821 820 819 820 823 824 822 817 813 811 808 812 815 816 824 833 834 834 830 823 822 819 813 819 829 826 819 815 806 802 815 827 830 826 821 820 817 815 815 809 807 810 805 796 785 767 748 738 737 736 733 733 735 736 737 737 737 739 739 740 741 741
812 814 815 814 814 814 815 815 818 820 821 820 820 825 830 832 836 840 841 840 837 833 832 829 826 824 822 820 820 820 822 822 821 818 813 810 808 808 814 817 823 831 832 831 831 825 821 819 814 815 821 812 800 801 802 798 801 809 815 815 815 816 817 820 816 805 804 806 798 794 784 759 739 734 733 732 731 732 732 733 734 735 736 738 738 739 740 740
812 816 816 814 814 815 815 818 822 823 821 822 826 831 834 833 835 838 840 841 838 835 835 833 829 827 823 820 819 821 821 818 816 816 812 807 806 807 813 817 821 824 825 824 825 824 822 823 819 813 805 798 798 805 809 807 803 803 803 800 802 809 810 811 808 801 804 802 791 795 790 756 731 730 730 728 729 729 730 731 733 734 736 737 737 738 738 738
813 815 815 814 814 815 817 821 824 823 823 829 834 835 835 834 834 837 839 838 835 834 834 832 827 825 823 822 821 821 821 817 811 811 809 805 806 813 817 816 819 822 821 820 822 823 823 822 821 813 796 792 804 813 813 811 807 802 798 795 797 799 797 800 802 800 803 796 786 796 787 747 724 726 725 725 727 728 730 731 732 734 735 735 736 736 736 736
813 815 814 815 814 815 818 821 821 820 823 831 834 833 835 834 832 835 835 833 832 831 831 827 824 824 824 825 824 820 818 815 808 806 808 805 809 820 821 816 819 820 818 819 819 819 818 814 815 814 800 791 796 800 800 806 810 802 794 792 793 791 796 804 805 806 806 789 780 792 777 737 723 727 724 725 728 728 730 731 732 734 734 734 735 734 734 735
814 816 815 815 814 815 818 820 819 819 823 829 830 829 831 831 831 832 831 829 829 828 826 825 825 826 826 826 826 822 819 817 812 809 810 809 813 823 823 818 819 818 818 821 820 818 817 812 808 809 805 797 788 781 779 787 797 798 791 790 788 789 797 800 800 809 806 781 774 785 765 728 719 726 726 728 730 729 731 732 731 732 732 732 733 732 733 733
816 817 817 816 815 816 819 820 820 820 823 826 824 823 824 826 828 831 831 827 826 827 826 826 827 826 827 828 826 823 820 819 815 812 811 810 811 819 825 822 821 822 822 823 822 821 820 815 808 803 798 790 778 772 774 778 783 785 784 784 786 788 793 794 796 798 788 775 772 768 753 733 724 725 728 729 730 730 730 731 731 731 732 731 732 732 731 731
816 817 818 819 818 818 818 820 820 820 821 822 820 820 822 823 825 829 831 829 826 827 827 825 825 823 821 824 823 818 815 815 816 814 811 809 810 818 826 825 823 825 826 824 822 822 822 817 808 804 797 786 776 772 775 780 781 780 780 781 783 788 793 796 792 776 768 776 767 745 741 743 731 724 727 727 728 730 730 731 732 732 732 732 731 731 730 729
817 818 819 821 820 819 819 820 820 820 821 821 820 819 819 820 821 822 826 830 831 829 825 821 821 820 816 816 816 812 809 811 814 812 808 808 810 815 821 825 826 826 825 826 823 821 823 815 802 800 798 790 784 781 780 784 784 781 782 781 779 785 791 790 779 764 766 774 755 731 735 740 729 724 725 724 728 731 731 732 732 731 731 730 730 729 728 727
819 819 822 823 821 820 822 824 823 821 821 822 820 819 817 817 817 815 819 827 828 827 824 816 812 814 814 812 812 810 806 804 802 800 802 806 809 811 813 815 822 827 825 825 825 823 822 813 801 801 800 793 791 789 786 789 787 781 783 780 774 775 779 778 772 765 767 767 750 740 743 736 726 726 726 726 730 732 731 731 731 731 730 729 729 728 727 726
818 817 820 822 821 822 825 825 824 822 822 822 820 817 816 814 812 811 814 817 814 817 823 816 805 807 811 811 811 806 798 793 789 790 797 801 803 807 805 799 810 826 827 823 824 824 820 810 799 803 805 795 788 788 787 786 782 779 778 773 767 766 767 768 767 765 769 766 752 750 752 740 727 727 730 731 730 729 730 731 729 729 728 728 728 727 725 725
816 816 817 819 819 822 824 823 823 822 820 821 818 814 812 811 809 808 808 806 801 805 812 810 804 804 806 807 807 799 792 791 789 789 793 794 793 796 795 789 798 817 824 822 820 820 821 813 803 808 809 790 777 781 780 774 774 777 774 767 761 762 761 757 753 753 759 760 754 756 758 745 729 727 729 728 727 728 729 728 728 728 727 727 726 725 724 724
817 816 816 817 817 819 821 820 821 820 816 813 812 809 807 806 807 807 805 801 797 799 802 802 803 805 802 800 799 795 793 794 794 793 793 793 791 791 790 789 792 802 813 818 816 816 820 815 804 805 804 784 773 777 777 778 782 774 760 752 750 751 750 745 742 741 744 749 753 753 746 733 727 728 728 727 727 728 728 727 728 727 726 726 725 723 723 722
Wind_Speed
4 4 4 4 4 4 4 5 6 7 8 9 9 9 8 8 7 7 7 7 7 5 4 3 3 3 3 9 8 5 4 4 4 2 1 5 16 16 14 12 10 9 7 6 4 5 5 7 10 11 10 8 6 5 8 8 4 2 2 4 4 3 1 4 6 5 1 7 7 9 9 6 7 5 3 4 4 7 8 5 4 4 6 8 11 18 25 25
5 6 6 6 5 5 5 5 6 8 9 9 9 9 8 8 8 8 8 7 7 5 5 3 2 3 5 9 9 5 4 5 4 3 5 10 16 13 11 9 6 6 6 6 6 7 7 7 9 11 8 5 5 4 5 5 3 3 3 4 3 2 3 4 6 6 4 6 8 9 9 5 6 9 7 6 7 8 8 6 7 6 6 9 12 15 20 22
6 7 8 8 7 7 6 6 6 7 8 9 9 9 9 8 9 9 8 7 7 6 5 3 2 4 7 9 9 4 2 7 6 2 6 13 14 11 11 9 5 4 5 6 6 7 9 8 7 8 7 5 4 4 3 3 2 3 4 4 1 2 3 5 7 6 7 3 7 7 6 3 6 9 6 6 8 9 9 8 9 9 9 10 12 15 17 18
7 8 9 9 8 7 6 6 6 6 7 8 9 9 9 9 10 10 9 8 7 6 4 4 3 5 9 11 10 3 6 7 3 3 8 13 13 12 11 8 4 2 4 5 7 9 11 11 10 8 6 5 4 4 4 3 2 2 3 2 2 3 1 5 6 5 7 4 4 6 4 4 6 6 6 7 6 7 8 9 12 12 13 13 13 16 18 17
8 9 9 8 7 7 7 7 6 6 6 7 8 8 9 9 10 10 10 8 7 6 5 5 4 6 11 14 11 4 6 4 1 6 12 14 13 12 11 8 3 2 4 5 7 10 9 9 8 6 5 5 5 4 4 4 2 1 1 2 4 4 2 4 5 4 6 5 2 5 4 4 4 3 7 8 6 4 3 3 9 11 13 15 15 17 17 17
8 9 9 8 7 7 7 7 7 6 6 7 8 8 9 9 9 10 9 8 7 6 6 6 6 8 11 14 11 6 5 1 4 10 15 15 14 12 11 8 4 2 2 4 7 8 6 8 7 5 5 4 6 4 2 3 2 2 1 4 5 5 3 3 4 4 5 3 3 3 2 5 4 3 6 8 3 3 2 4 1 5 15 18 18 17 16 16
8 9 9 9 8 7 7 6 6 6 6 6 7 7 8 8 8 9 8 8 7 6 6 6 6 8 11 12 8 6 6 2 8 13 16 16 14 12 10 8 5 2 1 5 7 6 5 7 7 5 5 5 7 5 1 2 4 4 2 4 4 5 5 3 3 2 4 2 2 2 2 3 5 4 2 6 3 6 3 4 6 8 17 18 16 15 15 16
8 9 11 10 9 9 8 7 6 5 4 4 6 6 6 6 7 8 8 7 7 7 6 6 7 8 10 9 5 5 4 3 10 13 15 15 13 12 10 8 7 4 3 7 7 6 5 6 7 6 5 5 3 1 2 2 4 2 1 4 3 4 5 3 2 2 2 2 2 0 2 1 1 2 2 6 6 8 5 5 4 7 13 13 12 13 14 15
8 10 11 11 11 11 9 8 6 5 3 3 5 5 5 5 6 7 7 6 7 7 6 6 7 9 10 8 5 5 0 4 9 11 13 14 12 9 9 7 6 6 7 6 6 7 5 4 6 5 4 3 2 3 2 2 0 2 3 4 3 4 4 3 3 3 1 1 1 2 3 1 3 3 5 9 7 9 7 6 4 5 8 9 10 11 13 13
9 10 12 12 12 11 10 9 6 5 2 2 3 4 4 5 6 7 6 7 7 6 6 6 8 10 12 8 6 3 3 5 8 10 11 12 12 11 10 9 7 6 7 5 3 6 5 5 6 4 2 1 4 3 2 1 1 3 5 4 4 4 3 3 3 3 2 2 2 3 3 2 3 1 5 5 8 9 8 7 7 6 7 8 8 10 13 14
9 11 12 12 11 10 10 9 6 4 1 1 3 4 5 6 8 8 7 7 7 7 7 8 9 10 9 8 5 1 5 6 7 11 11 11 12 13 12 11 8 6 8 5 1 5 6 8 9 4 2 0 4 3 2 2 2 4 5 4 4 3 2 4 4 4 3 2 3 3 4 2 4 4 6 5 9 9 8 8 8 8 7 8 8 8 11 13
9 10 11 11 10 9 9 8 7 5 4 5 6 7 8 9 9 9 8 8 8 9 10 7 6 6 6 6 1 3 4 5 7 10 9 9 10 10 10 10 8 6 8 4 3 5 5 7 8 2 2 2 1 3 2 2 3 4 4 2 3 4 4 7 5 5 4 2 3 2 4 5 7 9 7 8 8 7 8 8 8 8 7 8 8 7 8 12
8 9 9 9 9 8 8 8 9 10 10 10 11 10 10 10 9 8 8 9 10 10 9 4 1 4 6 2 3 3 3 3 6 9 8 8 7 5 7 9 8 7 7 5 5 4 3 5 4 2 3 2 2 1 2 3 2 3 4 3 2 4 4 7 5 5 4 2 3 1 3 4 7 8 5 9 8 8 7 7 8 7 7 8 8 8 8 11
7 8 8 7 7 6 7 8 9 11 12 13 13 12 11 9 8 8 7 9 12 11 7 1 5 6 4 1 2 4 6 3 5 10 9 8 8 4 4 8 8 7 7 6 5 3 3 3 5 5 3 3 3 2 2 3 2 2 2 2 3 3 1 7 5 6 5 2 3 2 1 5 3 5 7 7 8 8 7 7 8 7 7 8 8 9 9 11
7 7 6 6 6 5 6 7 8 11 14 15 15 14 12 11 9 7 7 9 11 10 5 4 6 5 2 3 2 3 8 5 5 10 9 9 10 6 4 7 6 5 5 5 4 3 3 2 4 4 2 3 3 3 2 3 3 2 1 2 3 3 2 5 6 6 3 2 5 3 2 6 2 6 6 6 7 8 7 8 9 9 9 9 8 9 9 10
6 6 5 5 5 5 6 7 10 14 15 15 14 13 12 11 9 7 7 7 9 9 5 5 5 5 2 3 3 2 6 6 7 9 6 8 9 7 7 8 5 2 2 2 1 2 4 3 1 2 3 2 2 2 2 3 3 3 3 3 3 3 3 4 4 5 2 2 6 6 3 5 1 6 6 7 8 9 8 8 10 10 10 10 9 9 9 9
5 5 4 4 4 5 6 8 12 14 13 12 11 11 12 11 10 7 5 5 6 6 5 4 4 4 1 2 2 2 5 7 8 7 5 8 8 7 8 8 5 3 3 3 3 2 3 2 0 1 2 3 3 3 3 2 2 1 2 3 4 4 2 2 1 2 3 2 4 6 6 8 8 5 7 9 10 10 9 10 11 10 10 10 9 9 9 10
4 4 2 2 3 5 7 9 11 10 9 9 9 10 11 12 11 10 6 2 4 4 4 3 5 2 2 3 2 4 6 6 7 6 7 9 7 6 7 7 4 5 5 4 4 3 2 2 1 2 2 2 2 1 1 1 1 2 2 3 4 5 5 2 1 2 3 3 4 5 7 11 13 9 8 11 11 11 12 11 10 10 10 10 10 10 10 11
3 2 1 1 4 5 6 9 8 8 9 9 10 10 10 10 9 10 12 6 1 2 1 3 4 2 1 4 5 8 8 7 6 6 8 9 7 6 8 8 6 5 5 3 2 1 0 1 2 2 1 1 3 3 2 2 3 4 4 4 4 5 5 2 4 2 1 2 5 7 8 11 13 12 9 9 11 12 12 10 8 9 9 10 10 10 10 11
2 2 2 3 5 5 6 10 10 11 11 9 6 4 3 3 2 3 9 9 4 2 1 2 4 1 0 4 7 10 6 6 4 7 11 12 8 7 6 7 7 4 3 2 1 1 1 1 0 2 2 3 4 4 3 3 4 5 5 4 5 6 4 2 5 2 0 1 6 7 9 13 12 13 12 7 10 12 11 10 9 9 9 9 10 11 12 12
3 3 4 5 6 6 9 13 13 11 8 4 1 3 1 2 2 1 2 4 4 4 3 2 3 2 1 3 7 9 4 4 2 8 15 14 5 4 2 3 6 2 1 1 1 1 1 1 2 2 2 2 3 3 3 3 4 4 4 4 5 5 3 3 4 2 2 0 5 7 10 14 12 14 13 7 9 12 12 12 11 12 11 9 10 12 12 10
4 4 5 7 7 9 14 14 10 7 2 1 3 5 2 2 1 5 2 2 3 4 2 1 3 2 2 1 3 7 4 3 1 8 17 16 3 1 3 3 4 1 1 1 1 1 1 1 3 3 2 2 1 2 2 3 4 4 3 4 4 3 2 2 3 2 3 1 4 6 8 12 14 15 15 10 10 11 12 14 13 12 11 10 10 11 10 9
4 5 7 8 9 13 16 12 6 3 0 3 5 6 1 2 7 6 1 1 2 3 2 2 2 4 3 2 6 9 3 1 3 7 16 15 4 1 4 4 3 1 0 2 3 3 1 2 3 3 3 3 1 1 2 3 3 4 4 4 4 4 3 0 0 1 3 5 6 6 7 11 14 13 13 12 12 11 10 13 12 10 10 11 11 10 10 11
5 5 8 10 11 16 17 9 4 2 1 4 4 2 4 7 7 3 1 0 2 1 1 2 2 4 4 2 6 7 3 3 3 6 12 11 4 3 2 3 3 1 2 4 3 1 2 2 2 2 2 3 3 1 2 3 3 4 1 3 3 3 3 3 3 5 6 6 5 4 6 7 8 7 7 7 9 10 8 10 9 9 9 9 9 10 10 11
5 5 8 12 12 17 18 8 4 4 2 2 1 3 8 7 3 2 2 1 1 2 1 1 1 2 2 2 4 4 2 2 3 5 8 8 5 3 1 1 2 1 3 3 2 2 3 1 0 1 2 2 3 2 2 2 4 2 1 3 3 3 4 5 7 6 6 4 3 1 4 4 3 4 7 4 6 7 6 8 9 8 8 8 8 9 9 10
5 4 9 13 13 17 16 6 4 6 4 2 1 5 8 3 2 4 2 2 1 1 1 2 3 0 2 2 3 2 2 0 3 4 4 5 3 2 1 1 0 2 2 2 1 0 2 2 1 1 2 1 3 2 1 1 3 2 1 3 4 4 5 5 7 4 3 4 3 4 2 5 5 5 9 6 5 7 6 7 8 7 7 8 8 9 8 8
6 3 9 14 15 18 11 2 4 6 3 3 4 7 6 0 2 2 1 3 1 1 0 2 2 2 2 2 3 1 1 1 1 2 3 5 3 1 0 1 1 1 1 2 1 0 1 3 2 2 2 3 3 3 1 1 0 2 2 3 4 5 5 6 5 3 4 5 4 6 4 4 6 6 9 5 5 5 6 8 9 8 8 9 8 8 8 9
5 3 8 13 17 19 8 1 3 5 4 3 6 11 5 2 2 2 2 2 1 1 0 2 1 1 1 2 4 0 1 2 2 1 2 3 2 1 1 2 2 2 2 1 1 1 1 1 2 2 2 3 1 1 1 1 1 1 2 3 4 5 6 6 4 4 5 5 5 4 4 1 6 5 3 2 3 5 7 8 8 9 10 9 9 9 9 10
4 2 8 11 16 19 10 1 1 4 5 4 7 11 4 4 3 2 1 2 0 1 1 1 2 1 1 2 1 1 1 0 1 1 1 1 0 0 0 2 2 2 2 1 0 1 1 1 1 0 1 2 1 3 2 1 1 1 3 4 5 5 5 4 3 4 4 4 6 5 5 2 6 6 2 3 0 6 7 5 3 4 6 9 9 9 9 9
1 4 7 9 12 16 11 4 5 5 5 5 9 9 2 3 2 1 2 2 0 1 1 0 1 2 2 2 1 0 1 1 1 2 1 0 1 1 1 1 1 1 1 1 1 0 1 2 1 0 0 1 3 2 0 1 1 3 4 4 5 5 4 3 4 3 3 3 5 3 5 3 4 5 4 2 3 6 4 5 4 2 3 6 8 9 9 8
3 5 8 9 8 11 8 4 6 6 5 9 11 7 2 2 1 2 2 1 0 0 1 0 0 2 2 1 1 1 0 1 1 3 1 0 1 1 1 1 1 1 2 2 1 1 2 1 1 1 0 1 2 1 1 1 1 2 2 3 4 2 2 2 2 2 2 3 3 1 2 0 3 5 5 4 5 6 5 7 8 6 5 5 5 6 7 7
4 5 10 8 5 9 7 3 5 6 8 12 11 4 2 1 1 2 1 1 1 0 0 1 1 1 2 1 1 1 1 1 1 2 1 1 1 0 1 1 1 0 1 1 1 1 2 2 2 2 1 1 2 1 1 1 2 2 3 3 3 2 1 1 2 2 3 3 2 2 2 3 7 9 10 11 11 10 8 8 8 7 6 5 4 4 5 6
5 4 7 6 4 7 6 4 4 8 12 12 7 2 1 1 2 1 1 0 1 1 0 0 0 0 2 1 0 1 0 1 0 1 0 1 1 0 1 1 1 1 1 2 2 1 1 2 2 2 1 2 4 3 1 1 3 3 2 1 1 2 2 3 3 3 3 2 2 4 1 4 6 8 11 13 13 12 7 6 6 6 6 6 5 4 4 5
7 5 4 4 3 5 5 3 6 11 13 8 2 2 1 2 1 0 1 0 0 1 1 1 1 1 2 1 0 1 1 1 0 1 1 1 2 2 1 1 2 1 1 2 3 0 1 3 3 3 1 4 5 3 2 2 2 4 2 2 1 1 2 3 2 3 3 4 2 3 2 4 4 4 6 9 10 8 6 4 5 5 6 5 3 3 4 6
9 9 8 6 4 3 4 6 11 13 10 3 2 2 2 3 1 1 1 1 1 1 2 0 1 2 2 2 1 0 0 0 1 1 2 3 2 1 1 2 3 1 1 1 1 0 3 4 2 1 0 4 3 1 3 2 2 2 1 3 1 2 3 2 3 4 2 3 3 2 2 5 5 8 9 9 9 7 6 6 6 6 6 5 4 5 6 6
6 7 8 8 7 5 5 9 12 10 4 1 2 3 2 1 1 2 1 0 0 1 2 1 1 2 3 2 1 1 1 0 1 1 2 3 2 1 2 1 2 1 1 1 0 1 2 3 2 2 1 2 0 1 1 1 0 0 1 1 2 2 0 0 4 4 2 1 4 4 4 5 5 10 9 4 5 7 7 7 7 7 7 6 6 7 6 6
2 3 4 5 6 4 4 8 9 6 1 2 2 3 1 1 1 1 2 1 1 0 0 1 1 1 2 1 1 2 1 1 1 1 1 1 1 2 4 1 1 1 2 1 1 1 1 2 3 3 1 1 1 3 2 3 2 2 2 2 2 2 1 1 2 3 0 4 4 4 6 5 3 6 5 1 2 7 8 7 7 7 7 7 7 7 7 7
3 2 3 4 4 3 4 6 6 3 2 2 3 3 1 1 0 1 2 2 1 1 0 2 0 1 1 2 0 2 1 0 1 1 2 1 2 2 5 2 2 1 2 2 1 1 0 2 2 1 0 1 1 1 3 4 2 1 2 2 1 1 1 2 1 2 3 4 4 4 6 5 4 6 8 7 7 7 8 8 7 8 8 8 8 7 8 7
4 2 1 3 3 2 4 5 4 2 2 2 3 3 1 1 1 2 3 2 2 1 1 1 0 1 1 1 1 1 2 1 0 1 1 2 1 1 2 2 0 1 1 1 1 0 1 1 2 2 1 2 2 2 2 2 1 2 3 2 1 1 2 3 2 1 2 3 5 4 3 4 6 7 9 11 9 7 8 8 8 9 8 8 7 7 7 7
3 2 0 2 2 2 4 3 2 2 3 2 1 1 0 1 1 2 2 2 1 1 1 1 1 0 1 1 1 1 2 1 2 1 1 1 1 2 2 1 3 4 1 1 1 2 1 2 2 2 1 1 3 4 5 5 4 3 1 2 3 2 0 1 2 2 3 3 5 5 5 6 6 6 9 11 7 5 8 7 7 8 7 7 7 7 7 6
2 0 1 3 3 1 2 2 1 1 2 1 1 1 0 0 1 1 1 2 1 0 1 2 2 1 1 1 1 1 1 2 3 2 2 3 2 2 2 2 5 7 3 1 2 2 1 2 3 2 2 4 5 4 3 3 5 6 5 5 6 5 3 0 4 3 3 3 4 5 7 8 8 6 8 9 7 6 7 8 8 7 7 8 7 7 7 7
2 0 1 2 5 1 1 2 0 0 1 1 0 1 1 1 0 2 2 0 1 1 1 1 2 2 2 1 0 1 2 3 4 3 3 4 3 1 2 3 6 8 4 2 1 1 1 1 3 5 7 6 2 1 2 3 1 2 3 5 6 6 6 4 4 3 2 3 4 3 6 11 10 7 8 10 8 8 8 8 7 7 7 7 7 7 8 7
1 0 2 2 5 2 1 1 1 1 1 0 1 1 1 1 1 2 2 2 2 1 1 2 2 2 2 1 0 2 3 2 4 5 3 4 2 1 3 5 8 6 2 1 1 1 1 1 3 5 7 4 1 2 2 3 2 2 4 5 5 5 7 5 3 1 1 5 5 2 6 11 7 5 7 7 6 6 6 6 7 7 6 7 8 8 7 8
2 1 2 2 2 1 1 1 1 1 1 1 1 1 1 2 2 2 3 4 3 2 2 3 2 2 1 1 1 3 2 1 4 5 3 3 2 1 2 5 7 6 3 2 2 2 2 2 3 2 6 4 1 1 1 1 1 3 4 5 6 7 5 2 1 0 2 9 10 4 8 11 4 1 3 6 6 6 5 6 7 7 7 7 7 7 7 7
0 0 1 2 1 0 1 1 1 1 2 1 2 3 2 2 2 2 2 3 3 3 2 2 0 0 1 1 1 4 4 3 3 1 0 1 2 1 2 4 5 4 2 1 1 1 2 2 3 3 4 6 6 5 3 2 4 4 3 6 10 10 9 4 2 2 4 11 10 6 11 15 8 3 2 4 5 5 6 7 7 6 6 6 5 6 6 6
1 1 0 1 1 0 1 0 1 1 1 2 2 2 3 2 1 1 2 2 3 3 2 1 1 0 1 2 2 5 6 6 5 3 2 3 2 1 2 4 3 1 2 1 1 1 1 3 6 8 8 9 11 8 3 2 2 4 5 7 9 10 12 9 3 6 10 9 7 10 15 18 17 13 11 7 5 7 7 6 5 5 6 6 6 7 7 6
1 1 0 1 1 1 1 1 2 1 1 2 1 1 2 3 1 1 2 2 1 2 3 3 4 3 4 4 3 5 6 7 7 6 6 6 3 1 2 3 3 3 4 1 1 1 1 5 9 12 15 16 16 15 8 4 7 9 8 8 9 8 11 12 11 15 11 4 10 16 15 17 20 17 14 11 7 7 7 6 7 7 7 7 7 7 7 7
0 1 1 1 0 0 1 1 2 2 1 1 1 1 2 4 3 2 2 1 1 2 3 3 7 9 8 6 4 4 3 4 6 6 5 5 4 1 2 3 4 6 6 3 2 3 2 6 7 10 15 17 17 18 14 10 12 12 10 14 14 10 13 17 21 22 13 8 16 20 15 16 18 16 15 13 8 8 9 8 8 8 8 8 8 8 8 8
1 1 1 0 1 1 1 1 1 2 3 3 2 3 3 5 6 3 2 2 2 5 6 5 8 11 11 9 6 4 4 4 6 7 4 4 4 3 2 3 3 5 6 5 3 3 1 5 6 7 11 15 15 16 13 11 14 14 12 17 19 16 17 20 22 22 17 16 22 22 22 23 19 16 16 13 10 9 9 8 8 8 9 8 8 8 8 8
1 1 1 0 1 1 1 2 1 2 3 3 2 3 3 5 6 3 2 4 4 4 7 8 10 9 11 10 9 10 10 9 9 8 5 4 4 4 4 3 4 5 6 5 3 3 3 2 2 2 6 13 13 12 11 13 16 15 13 17 20 19 18 18 19 18 15 18 24 23 21 22 18 13 11 10 9 9 7 7 8 8 8 7 7 8 8 8
1 1 1 1 2 2 2 1 1 2 2 3 3 3 2 5 6 3 3 8 9 6 8 11 10 6 6 10 13 17 15 11 10 7 4 6 4 4 4 3 6 7 6 6 4 5 5 2 1 3 4 11 8 6 10 11 11 12 13 18 21 18 15 15 16 15 14 17 21 18 14 14 12 8 6 7 7 6 6 7 6 6 7 7 8 9 9 9
1 1 0 1 2 2 3 1 1 2 2 3 4 4 3 3 2 0 3 5 9 8 7 9 7 4 5 10 13 13 8 5 6 4 2 3 4 3 4 4 7 9 7 7 4 4 6 4 2 4 4 10 4 1 4 6 7 10 11 16 20 17 15 16 15 14 15 14 13 11 10 9 7 6 7 7 6 6 6 6 6 7 8 8 9 9 9 8
Wind_Direction
347 332 317 299 282 268 253 243 242 244 243 240 238 237 239 241 239 238 240 243 244 257 265 282 295 290 188 167 157 154 191 249 271 299 89 2 339 326 322 314 299 296 277 267 246 256 252 222 228 224 226 218 214 235 191 196 220 185 229 238 255 269 303 352 2 355 96 143 150 164 181 170 151 165 153 168 148 125 159 163 108 95 86 82 88 117 141 155
346 340 331 318 306 291 275 258 247 244 243 240 237 235 235 238 241 238 237 244 245 250 255 251 248 219 163 163 162 156 194 270 285 66 45 341 334 334 334 331 310 288 257 244 241 247 242 222 219 213 222 226 202 207 179 175 197 208 252 239 257 15 68 3 360 4 17 126 147 166 189 201 156 156 160 179 165 145 166 171 161 150 116 113 114 122 138 148
354 349 342 333 321 307 292 277 264 255 252 248 244 242 241 240 242 245 240 237 239 240 243 246 220 183 166 162 166 163 285 290 278 74 8 333 335 340 337 335 319 284 243 240 265 281 277 274 263 226 217 237 204 176 184 156 174 212 244 256 324 56 95 34 15 9 1 82 144 157 178 196 140 145 168 190 170 169 192 181 176 185 167 148 140 141 145 149
1 356 348 340 330 322 313 305 292 278 270 261 253 247 244 242 240 245 244 235 232 230 227 229 205 182 176 171 176 208 305 289 276 17 344 334 339 342 343 338 319 263 236 247 279 287 282 285 282 246 216 247 222 183 210 161 141 229 230 261 18 355 40 45 19 6 350 348 129 133 161 173 138 145 174 190 180 187 214 194 184 190 173 160 154 155 156 157
3 359 353 345 336 333 329 323 315 299 282 268 262 257 248 242 236 236 239 234 227 220 215 214 203 195 184 183 193 240 296 275 26 354 340 341 343 344 349 348 333 262 236 244 271 271 262 262 263 245 226 252 237 203 221 179 150 301 93 62 33 348 358 53 25 9 340 322 120 131 173 153 120 153 188 212 216 186 246 197 183 186 166 160 158 159 163 166
3 1 357 350 344 342 337 328 321 305 284 265 262 264 256 244 233 227 228 227 222 214 206 203 198 195 191 196 210 251 281 287 22 345 344 347 347 351 356 358 345 295 246 244 261 259 248 244 238 237 233 247 254 231 177 136 139 250 129 75 38 22 43 54 35 6 325 300 140 127 129 114 138 207 205 229 233 122 41 23 49 147 147 154 156 162 169 172
1 0 356 353 352 351 346 335 326 309 283 261 250 253 254 245 233 221 217 218 212 208 202 197 190 191 198 205 222 254 253 18 7 344 348 350 349 353 357 2 351 355 246 255 253 244 234 233 228 237 232 242 258 232 135 135 179 238 220 92 54 53 73 64 54 8 343 6 76 64 89 134 200 220 208 225 155 115 108 44 34 98 134 150 157 168 175 176
357 358 355 355 357 355 350 339 328 310 282 248 228 227 237 240 231 213 206 204 197 200 194 189 187 186 193 199 222 243 232 360 352 343 349 351 353 352 352 357 348 343 283 264 262 259 246 233 229 236 235 241 266 110 27 269 196 246 70 103 88 79 87 89 97 84 32 33 45 21 210 161 261 6 326 237 158 133 140 100 72 105 137 156 163 174 178 179
355 355 353 355 358 356 350 343 331 313 290 227 214 214 219 220 216 201 192 192 186 189 182 180 186 183 183 190 233 244 113 357 338 346 352 354 2 1 352 350 332 308 277 261 269 270 261 249 237 244 258 257 35 54 21 328 125 56 82 105 106 106 105 127 128 113 96 80 122 230 223 122 33 6 271 235 167 138 142 136 143 142 156 170 170 178 182 181
353 352 352 356 359 355 349 344 335 315 299 211 199 196 197 188 183 177 174 179 176 178 173 171 175 175 182 202 247 256 38 1 339 353 353 354 7 11 4 359 341 309 288 270 275 282 286 312 297 308 331 88 71 36 352 45 96 87 102 98 101 120 132 169 151 134 149 126 179 257 253 172 122 200 256 205 146 138 145 158 167 166 177 183 180 183 185 187
350 349 349 355 359 355 348 347 348 341 344 158 164 162 164 156 155 157 159 165 165 167 160 159 169 174 202 239 262 341 24 356 348 357 351 348 358 4 4 1 355 334 310 290 356 337 325 327 317 331 11 105 90 63 42 99 143 119 125 115 122 159 163 184 177 165 187 154 183 278 294 220 145 209 235 148 137 148 155 169 173 178 188 189 190 186 186 191
345 347 348 354 0 356 355 5 21 44 76 108 126 129 132 136 141 149 153 158 158 159 155 156 174 193 248 272 7 38 6 360 357 354 348 339 338 351 3 3 5 357 332 332 49 6 337 326 311 313 14 310 108 89 99 169 169 147 181 183 153 190 201 199 182 170 209 169 159 287 293 232 201 223 212 140 145 157 163 177 177 186 190 188 193 189 191 194
341 347 347 355 6 4 15 36 55 75 89 99 108 114 122 130 138 145 150 155 158 157 151 145 237 246 263 293 66 21 354 12 4 352 348 344 330 337 11 11 18 20 11 41 52 17 358 342 333 80 33 3 105 105 149 179 179 172 224 263 200 227 208 185 167 162 195 141 149 229 299 250 220 208 154 128 152 160 175 189 181 190 193 192 192 191 198 196
339 344 347 0 13 21 39 56 71 84 94 98 102 107 113 122 131 139 147 155 162 162 152 17 317 281 266 95 88 31 25 22 5 357 349 355 344 324 15 14 20 31 38 60 56 37 44 46 96 99 28 28 101 151 156 159 200 199 227 261 224 256 176 163 160 171 182 141 176 192 239 279 268 150 133 141 162 166 186 195 187 193 196 197 194 196 203 200
335 339 351 10 24 44 56 67 86 96 100 101 102 102 102 107 115 125 141 154 167 170 179 302 300 274 236 117 125 46 33 22 359 354 345 356 347 332 5 358 357 25 38 51 52 50 57 91 122 105 61 75 116 163 171 173 210 210 216 288 230 226 179 166 173 186 190 155 192 197 242 272 267 142 156 162 168 182 198 201 195 197 198 200 198 200 205 205
331 338 354 21 39 68 76 89 105 108 105 103 100 96 93 92 95 103 124 152 170 180 214 274 268 265 275 102 130 78 34 19 354 345 346 352 339 329 333 314 300 328 3 20 48 78 70 56 63 109 119 151 175 196 223 211 213 197 207 278 267 230 198 160 182 209 201 123 192 214 261 286 250 158 172 177 183 193 207 212 202 200 200 200 203 203 204 206
331 336 357 31 63 93 100 111 116 112 105 101 98 95 92 82 78 79 94 146 160 183 233 293 302 284 9 86 141 58 18 6 356 353 354 340 325 316 313 298 282 283 275 236 224 197 131 83 29 184 172 215 222 227 253 250 239 191 206 266 275 275 264 177 173 192 182 190 224 225 235 260 257 205 182 192 194 193 209 218 206 203 203 201 204 205 206 207
332 334 355 51 99 110 120 129 123 113 104 105 106 103 99 86 78 67 56 146 176 196 229 340 347 286 89 40 337 346 345 333 338 350 350 338 319 300 300 295 289 281 272 239 220 223 185 147 195 230 211 220 248 265 263 296 309 334 333 294 299 313 309 295 111 135 184 210 242 245 244 255 260 247 208 195 194 200 212 215 209 206 202 202 205 207 210 209
330 321 315 141 139 129 136 144 135 121 113 115 115 112 111 100 91 66 44 45 158 204 221 354 351 245 115 34 353 325 316 293 306 350 355 346 329 294 277 269 270 263 269 266 197 214 305 178 211 267 330 41 12 21 26 359 324 315 315 300 304 306 306 351 110 146 221 224 237 244 252 260 265 264 243 199 191 210 219 216 215 212 206 204 206 210 211 212
322 282 234 179 162 154 151 151 143 128 121 121 117 115 133 127 132 66 38 41 50 33 52 4 355 21 46 15 351 336 319 261 291 25 5 344 325 296 269 245 252 244 252 311 32 43 326 279 13 22 13 22 16 12 358 332 313 309 316 309 297 289 291 85 116 151 120 279 257 252 261 266 268 269 261 214 192 214 223 219 219 216 213 211 210 213 212 216
303 258 217 185 172 169 158 151 142 133 130 128 166 271 280 336 301 141 57 51 42 9 55 40 335 65 49 334 349 352 347 229 241 34 8 350 315 277 301 240 251 241 126 333 339 41 259 271 48 41 1 10 6 356 342 319 308 304 304 293 286 287 297 74 101 164 136 107 269 273 278 275 271 270 267 229 196 216 218 217 221 217 217 216 215 217 216 218
287 249 216 193 178 171 160 151 146 146 140 8 276 271 315 6 157 142 150 111 61 339 15 13 279 88 61 329 359 336 308 238 247 32 7 354 346 262 341 302 280 352 112 222 262 260 209 89 49 24 359 344 345 9 335 305 301 287 274 270 280 316 339 54 89 172 153 154 268 287 290 282 278 272 270 251 223 225 213 211 219 215 216 220 219 220 217 214
289 250 215 199 183 176 168 162 167 168 69 330 301 288 301 127 148 148 198 129 118 284 338 17 349 39 26 29 4 335 334 11 326 17 2 348 356 20 326 326 339 339 346 359 340 304 244 77 34 3 349 320 315 57 290 287 268 248 253 270 284 8 19 295 230 239 214 221 252 298 300 282 280 273 268 253 235 234 216 210 217 212 215 221 219 220 216 213
299 252 213 199 188 181 179 180 199 202 325 314 312 301 152 148 146 143 284 161 136 207 52 8 3 31 24 11 340 333 40 55 340 358 359 351 349 317 320 14 351 315 49 8 345 39 101 75 22 347 315 321 327 301 299 322 289 241 233 299 299 1 345 273 299 310 284 251 232 289 296 269 269 271 270 248 223 231 218 200 207 211 218 223 223 223 216 215
305 255 210 196 192 187 188 203 237 230 269 324 359 151 152 149 132 14 323 254 162 141 156 263 193 61 24 338 330 338 6 56 38 360 356 4 349 314 337 32 319 17 58 357 314 110 113 137 55 283 258 309 315 306 42 8 302 285 54 347 342 342 314 296 310 315 305 290 204 236 301 277 286 302 291 267 195 215 213 193 204 211 214 220 227 230 223 218
311 258 206 194 193 189 188 212 237 221 244 293 277 175 159 145 14 21 357 258 223 145 203 197 181 328 16 2 357 11 302 299 47 355 357 18 351 315 335 273 144 61 44 18 356 103 132 152 182 285 267 276 276 263 121 129 291 292 281 333 342 321 303 289 295 298 285 290 228 177 240 281 298 294 276 259 186 199 199 198 216 214 212 217 223 229 228 224
316 261 202 193 192 187 183 216 204 196 224 243 216 184 170 290 336 8 321 254 239 176 224 159 205 293 38 1 317 318 308 315 353 349 13 9 347 225 289 13 77 72 58 52 30 274 131 146 190 252 252 252 254 236 179 129 245 255 253 309 314 286 275 274 283 267 256 288 262 189 179 278 288 271 258 230 172 210 220 214 225 221 216 220 220 220 221 224
315 246 190 189 191 187 178 19 191 193 219 228 194 182 185 319 298 315 300 259 268 207 332 91 159 303 61 327 310 66 97 303 300 22 22 345 341 261 246 32 28 78 86 19 302 306 307 168 198 213 224 246 247 128 104 105 159 260 297 283 272 270 274 278 282 266 266 299 286 221 151 256 276 265 271 102 132 246 241 220 221 218 216 216 217 216 214 218
317 197 178 181 187 189 190 225 250 227 223 223 191 181 198 314 283 315 281 259 303 139 11 76 143 330 4 260 278 102 138 321 345 343 320 281 278 264 223 36 30 89 108 250 266 329 309 52 28 220 238 240 114 82 54 59 168 329 317 271 256 259 260 260 251 269 281 277 271 243 157 190 285 271 267 51 291 246 241 230 212 202 210 209 208 211 210 211
3 162 166 167 180 192 203 240 277 259 220 201 186 178 229 298 271 301 246 254 60 125 309 107 183 297 320 260 210 96 245 102 15 287 285 241 173 142 96 2 351 122 175 205 115 45 105 65 7 200 281 115 105 106 25 37 351 318 305 276 267 246 222 230 226 246 293 268 265 243 158 163 304 276 221 189 205 196 219 274 277 250 230 217 205 199 201 204
102 145 154 153 172 190 200 241 251 240 208 185 174 170 253 273 250 276 244 248 82 145 273 77 148 295 332 325 211 352 295 128 357 317 333 24 210 178 135 26 358 251 224 203 189 131 139 197 215 137 342 78 115 176 158 89 315 299 284 282 298 269 203 235 213 191 254 260 259 3 63 168 254 260 246 238 230 204 219 264 267 249 233 227 213 195 191 190
104 147 160 159 173 185 191 235 223 205 185 173 166 173 259 239 229 242 231 295 278 251 166 104 42 315 359 12 244 341 9 178 348 3 5 317 292 103 98 59 45 266 245 221 228 166 189 217 130 91 317 227 172 188 162 191 215 232 260 274 303 316 304 264 212 204 234 232 188 125 30 278 244 255 261 262 267 262 242 235 238 234 221 219 216 195 176 167
87 131 175 190 199 190 207 253 205 178 169 163 166 229 264 266 263 220 165 299 299 330 66 134 210 305 335 329 257 343 262 223 251 122 164 280 263 108 28 338 130 163 244 310 306 244 287 317 138 136 286 207 193 200 194 194 186 204 238 253 280 315 316 280 267 260 255 252 173 137 116 273 267 266 251 249 259 259 240 216 217 218 219 223 204 173 168 172
78 93 148 177 191 199 215 220 171 161 157 155 193 238 195 255 256 103 211 184 67 207 118 15 253 236 260 246 62 17 238 243 281 287 250 214 230 217 187 207 183 181 249 312 320 237 272 292 202 174 162 170 195 211 159 138 201 217 197 77 28 253 231 238 268 269 273 301 269 141 138 240 250 263 226 224 238 228 198 199 217 221 225 231 215 193 205 213
83 86 90 90 90 136 167 166 160 156 154 161 237 213 222 248 237 19 287 119 97 173 151 19 296 265 236 181 128 75 94 192 211 289 240 209 240 253 146 161 177 189 221 219 337 96 226 248 172 102 156 163 183 206 129 117 260 246 77 75 142 233 231 234 281 278 276 319 283 206 218 229 242 277 267 249 241 214 191 206 217 233 236 226 239 243 229 225
77 76 70 63 60 77 138 158 158 155 162 252 231 223 240 252 338 9 342 321 223 150 143 199 264 269 238 167 171 227 87 282 241 272 230 210 237 212 126 98 149 145 149 191 40 63 252 257 144 113 265 188 174 14 123 159 235 258 83 156 228 250 316 289 289 308 59 282 255 210 248 278 294 290 282 261 236 218 212 214 208 229 232 208 222 244 237 229
17 75 71 50 47 66 138 159 161 163 244 269 237 250 216 120 340 344 359 337 285 325 114 236 213 249 264 207 165 185 123 4 207 235 256 202 229 179 142 106 330 124 124 129 142 151 231 268 195 175 250 248 27 10 288 238 171 140 208 237 289 297 20 72 283 315 325 256 250 202 239 277 306 285 293 15 241 228 223 220 220 231 222 202 217 236 237 234
335 116 93 52 48 71 137 162 173 191 258 254 261 272 145 104 332 9 359 329 281 267 245 269 235 121 313 315 134 144 144 55 144 206 260 219 241 181 140 145 315 354 101 83 71 173 189 293 243 229 67 166 139 5 281 244 182 164 259 271 26 267 238 159 196 273 246 258 271 225 233 250 226 244 274 282 264 244 230 218 220 229 219 211 225 237 241 241
294 206 108 72 63 64 131 163 186 218 249 246 257 269 93 79 72 56 2 322 294 278 234 276 300 147 205 293 352 124 154 183 258 251 253 205 241 241 160 161 200 178 158 91 88 225 161 165 259 298 37 134 170 212 223 210 135 25 325 290 160 176 230 195 181 230 214 258 282 253 227 240 227 233 260 266 257 232 215 205 214 227 225 221 221 229 238 238
272 241 62 114 119 74 124 159 220 234 241 242 239 258 223 92 107 83 14 345 302 283 318 353 3 219 229 210 228 194 164 212 256 262 242 198 244 249 201 126 140 158 141 22 308 294 172 166 233 298 13 149 199 206 200 188 161 145 208 217 188 175 9 302 263 205 191 249 274 267 256 247 237 234 241 248 251 211 194 206 234 239 233 232 226 229 239 236
258 230 49 152 169 129 139 188 259 231 246 254 108 69 46 202 126 131 42 5 338 32 41 330 293 296 296 237 215 196 194 223 215 222 248 218 211 238 218 130 139 149 128 84 255 261 189 198 243 250 252 240 225 208 195 179 166 170 183 190 188 176 132 328 263 223 195 232 240 256 271 263 251 245 241 247 258 244 219 225 247 247 238 242 241 237 238 234
275 275 26 178 192 199 210 210 125 32 280 280 220 68 49 275 225 159 162 60 284 222 138 272 248 231 252 249 158 172 232 249 207 199 242 227 199 202 215 161 146 156 150 113 209 237 121 267 271 261 252 249 244 107 67 26 351 205 214 195 178 172 170 191 234 223 192 245 254 263 272 272 260 232 233 243 238 231 227 222 232 244 238 241 250 251 244 240
328 72 57 169 198 225 282 210 154 228 219 189 246 148 126 241 192 146 190 199 210 208 193 230 218 218 243 285 72 186 192 232 217 205 233 244 218 196 206 165 145 158 176 100 170 193 87 215 240 268 267 256 73 95 87 24 359 264 245 213 184 192 193 191 214 197 183 243 247 260 264 270 268 204 207 218 201 204 219 213 219 240 250 249 254 255 248 245
27 26 55 113 188 234 263 235 239 227 154 125 245 189 164 249 211 184 212 208 194 188 216 232 219 211 221 59 272 235 188 207 231 221 230 245 226 237 227 176 158 174 196 172 177 168 166 205 200 275 296 288 313 306 290 325 231 227 239 215 208 205 163 99 315 77 292 247 228 232 267 264 266 124 158 153 165 202 222 223 224 230 245 253 256 258 252 252
124 346 53 121 131 147 249 300 340 2 108 130 260 225 195 224 213 214 240 215 203 209 234 253 224 200 177 116 256 255 241 231 231 218 46 239 231 218 216 198 189 200 191 125 66 146 195 225 200 217 269 270 272 277 261 216 194 215 230 210 215 204 171 167 229 170 240 249 222 202 253 262 268 285 246 160 177 228 240 239 240 235 247 265 279 282 277 270
232 312 197 165 98 75 202 108 358 317 148 173 266 244 193 205 196 205 245 224 196 194 230 253 131 155 197 174 238 250 232 219 224 255 269 224 211 163 181 209 211 178 107 97 5 14 235 252 235 228 236 243 252 254 223 138 187 232 236 216 213 204 190 188 193 204 227 256 251 219 235 262 277 279 277 270 257 266 270 270 282 292 294 298 296 287 280 273
277 295 173 188 315 260 239 161 171 225 177 167 241 202 198 228 171 144 222 236 178 191 241 222 179 191 195 178 218 247 221 205 217 244 254 236 223 81 165 211 210 162 131 147 233 151 198 252 236 230 237 244 255 263 270 302 279 264 268 255 232 204 191 192 212 227 225 257 271 246 232 251 269 275 279 280 280 288 300 307 304 303 299 294 290 286 284 281
300 313 57 93 353 174 253 251 203 211 171 147 238 185 194 217 197 191 227 229 56 216 226 221 207 212 212 190 197 238 211 192 215 229 241 234 215 156 171 205 196 166 149 165 213 163 210 260 233 222 242 250 257 265 272 285 277 266 265 265 253 223 199 203 221 232 224 222 254 261 260 260 266 275 280 284 298 304 301 298 296 295 291 285 283 282 279 280
83 6 65 174 312 83 156 263 307 268 219 187 219 210 205 223 217 215 164 130 233 220 197 229 232 213 214 215 212 228 205 189 229 231 205 201 209 188 199 219 186 165 164 180 201 164 184 262 238 229 257 259 257 266 271 269 266 261 251 253 254 242 222 219 229 237 232 236 251 264 272 271 269 273 280 292 304 298 291 294 293 285 278 274 273 273 273 278
80 358 92 232 281 105 143 213 203 263 225 178 222 225 210 230 227 219 147 164 220 211 180 226 245 215 209 215 213 230 224 211 243 251 187 177 217 201 209 215 151 163 191 187 186 195 194 239 224 193 275 269 257 261 261 249 253 258 252 249 251 249 241 234 238 240 236 243 252 257 264 270 273 277 283 289 286 281 282 284 279 274 277 282 286 285 283 285
12 317 75 300 261 146 143 227 181 255 237 179 209 223 215 235 225 223 225 202 207 201 181 213 242 234 212 213 219 236 239 235 262 274 183 186 222 201 205 191 136 150 196 193 174 187 196 246 5 105 279 280 266 255 262 258 258 258 254 251 250 248 245 240 238 233 223 233 248 256 259 263 274 290 285 268 273 292 299 295 295 296 295 295 292 290 288 287
65 333 36 326 283 171 159 181 181 242 253 194 206 213 215 240 213 141 286 227 212 220 203 202 224 243 230 228 230 239 252 261 275 284 200 230 269 249 234 217 161 158 175 182 180 177 182 227 257 138 242 281 292 16 310 310 292 269 250 242 243 244 243 244 245 238 224 222 237 249 251 260 285 310 302 297 314 322 309 305 310 305 301 297 289 285 287 290